Regional Weather Roundup
Issued by NWS Little Rock, AR

Home | Current Version | Previous Version | Graphics & Text | Print | Product List | Glossary On
Versions: 1 2 3 4 5 6 7 8 9 10 11 12 13 14 15 16 17 18 19 20 21 22 23 24 25 26 27 28 29 30 31 32 33 34 35 36 37 38 39 40 41 42 43 44 45
000
ASUS44 KLZK 241805
RWRLZK

WEATHER ROUNDUP FOR ARKANSAS
NATIONAL WEATHER SERVICE LITTLE ROCK AR
1200 PM CST WED DEC 24 2014

NOTE: "FAIR" INDICATES FEW OR NO CLOUDS BELOW 12,000 FEET WITH NO
SIGNIFICANT WEATHER AND/OR OBSTRUCTIONS TO VISIBILITY.

ARZ001-003-010-029-241900-
NORTHWEST ARKANSAS

CITY           SKY/WX    TMP DP  RH WIND       PRES   REMARKS
FAYETTEVILLE   CLOUDY    37  33  85 NW14      29.87F
6HR MIN TEMP:  34; 6HR MAX TEMP:  37; 6HR PCP:  0.01;

FORT SMITH     CLOUDY    42  32  67 W15G22    29.92F
6HR MIN TEMP:  39; 6HR MAX TEMP:  43; 6HR PCP: TRACE;

HARRISON       LGT RAIN  37  33  85 NW10      29.80F
6HR MIN TEMP:  36; 6HR MAX TEMP:  38; 6HR PCP: TRACE;

BENTONVILLE    CLOUDY    37  30  75 NW12      29.87S
6HR MIN TEMP:  36; 6HR MAX TEMP:  37; 6HR PCP:  0.01;

ROGERS         CLOUDY    36  33  89 NW10      29.86S
6HR MIN TEMP:  34; 6HR MAX TEMP:  36; 6HR PCP: TRACE;

SILOAM SPGS    CLOUDY    37  28  70 NW15      29.90S
6HR MIN TEMP:  36; 6HR MAX TEMP:  37;

HIGHFILL       CLOUDY    37  33  85 NW12      29.87S
6HR MIN TEMP:  35; 6HR MAX TEMP:  37; 6HR PCP:  0.01;

SPRINGDALE     CLOUDY    37  32  81 W13G18    29.88S
$$

ARZ004-005-016-241900-
NORTH CENTRAL ARKANSAS

CITY           SKY/WX    TMP DP  RH WIND       PRES   REMARKS
BATESVILLE     CLOUDY    43  36  75 W10       29.80F
6HR MIN TEMP:  39; 6HR MAX TEMP:  43;

FLIPPIN        CLOUDY    39  30  70 W8        29.79F
6HR MIN TEMP:  37; 6HR MAX TEMP:  39;

MTN HOME       LGT RAIN  38  35  89 NW7       29.78F FOG
6HR MIN TEMP:  37; 6HR MAX TEMP:  39; 6HR PCP: TRACE;

$$

ARZ040-041-241900-
WEST CENTRAL ARKANSAS

CITY           SKY/WX    TMP DP  RH WIND       PRES   REMARKS
MENA           CLOUDY    41  36  81 W16       29.91S
MOUNT IDA      CLOUDY    42  34  73 W9        29.86S
6HR MIN TEMP:  36; 6HR MAX TEMP:  42;

$$

ARZ009-017-025-026-028-241900-
NORTHEAST ARKANSAS

CITY           SKY/WX    TMP DP  RH WIND       PRES   REMARKS
CORNING          N/A     45  36  70 W10       29.76F
JONESBORO      CLOUDY    44  35  70 W13       29.77F
6HR MIN TEMP:  41; 6HR MAX TEMP:  45; 6HR PCP:  0.02;

NEWPORT        CLOUDY    45  35  67 W10       29.80F
6HR MIN TEMP:  40; 6HR MAX TEMP:  46; 6HR PCP:  0.01;

WALNUT RIDGE   PTSUNNY   45  32  61 W12       29.75F
6HR MIN TEMP:  39; 6HR MAX TEMP:  45; 6HR PCP:  0.01;

BLYTHEVILLE    CLOUDY    43  38  82 NW13      29.76F
6HR MIN TEMP:  42; 6HR MAX TEMP:  45; 6HR PCP:  0.03;

$$

ARZ022-023-033-042-044-241900-
CENTRAL ARKANSAS

CITY           SKY/WX    TMP DP  RH WIND       PRES   REMARKS
LITTLE ROCK    CLOUDY    45  34  65 W9        29.85F
6HR MIN TEMP:  40; 6HR MAX TEMP:  46;

N LITTLE ROCK  CLOUDY    43  37  82 W7        29.85F
6HR MIN TEMP:  37; 6HR MAX TEMP:  44;

JACKSONVILLE   CLOUDY    45  36  72 W9        29.83F
6HR MIN TEMP:  36; 6HR MAX TEMP:  45;

SEARCY         CLOUDY    44  35  70 W9        29.84F
6HR MIN TEMP:  40; 6HR MAX TEMP:  44; 6HR PCP: TRACE;

HOT SPRINGS    CLOUDY    43  34  70 W10       29.88F
6HR MIN TEMP:  35; 6HR MAX TEMP:  43;

RUSSELLVILLE   CLOUDY    43  35  73 W12       29.85F
6HR MIN TEMP:  39; 6HR MAX TEMP:  43;

CLINTON        CLOUDY    41  34  75 NW10      29.84F
$$

ARZ036-241900-
EAST ARKANSAS

CITY           SKY/WX    TMP DP  RH WIND       PRES   REMARKS
WEST MEMPHIS   CLOUDY    45  38  76 W8        29.78F
6HR MIN TEMP:  41; 6HR MAX TEMP:  45; 6HR PCP:  0.01;

$$

ARZ050-053-066-070-073-241900-
SOUTHWEST ARKANSAS

CITY           SKY/WX    TMP DP  RH WIND       PRES   REMARKS
ARKADELPHIA    MOCLDY    47  40  76 W9        29.91F
6HR MIN TEMP:  36; 6HR MAX TEMP:  47;

CAMDEN         CLOUDY    46  34  61 MISG      29.92S
TEXARKANA      CLOUDY    44  35  70 NW16G24   29.94F
6HR MIN TEMP:  41; 6HR MAX TEMP:  46; 6HR PCP: TRACE;

EL DORADO      CLOUDY    46  36  68 W9        29.91F
6HR MIN TEMP:  37; 6HR MAX TEMP:  48;

DE QUEEN       CLOUDY    43  36  76 W16G22    29.94F
6HR MIN TEMP:  40; 6HR MAX TEMP:  44;

$$

ARZ056-057-069-241900-
SOUTHEAST ARKANSAS

CITY           SKY/WX    TMP DP  RH WIND       PRES   REMARKS
PINE BLUFF     CLOUDY    45  33  63 W13G20    29.87F
6HR MIN TEMP:  39; 6HR MAX TEMP:  47;

STUTTGART      CLOUDY    46  32  57 NW13      29.84F
6HR MIN TEMP:  41; 6HR MAX TEMP:  48;

MONTICELLO     CLOUDY    47  32  56 W10       29.87F
6HR MIN TEMP:  41; 6HR MAX TEMP:  47;


$$




USA.gov is the U.S. government's official web portal to all federal, state and local government web resources and services.